Impacts METAR Board INFO
IDs:

KPDX - Portland Intl Arpt, OR, US

Updated at: 1906 UTC 16 Jan 2018
Potential Impact None Slight Moderate High
Time16/07Z 16/08Z 16/09Z 16/10Z 16/11Z 16/12Z 16/13Z 16/14Z 16/15Z 16/16Z 16/17Z 16/18Z 16/19Z
VIS10 10 10 10 10 10 10 10 10 10 10 10 10
CIG26 49 60 31 41 39 22 16 110 60 55 -- 250
CoverOVCOVCOVCOVCOVCOVCOVCOVCBKNBKNBKNFEWBKN
FltCatMVFRVFRVFRVFRVFRVFRMVFRMVFRVFRVFRVFRVFRVFR
WX-----RA-------RA------------
WDir120110110110120120110100110130120140110
WSpd15 14 13 15 13 12 13 9 6 8 8 7 12
WGst-- -- -- -- -- -- -- -- -- -- -- -- --
Raw hourly METARs
KPDX 160653Z 12015KT 10SM OVC026 08/04 A3006 RMK AO2 RAE05 SLP177 P0000 T00830044 $
KPDX 160753Z 11014KT 10SM OVC049 07/06 A3006 RMK AO2 RAB0655E42 SLP178 P0004 T00670056 401390056 $
KPDX 160853Z 11013KT 10SM -RA BKN060 OVC075 07/06 A3007 RMK AO2 RAB07 SLP181 P0001 60005 T00720056 51020 $
KPDX 160953Z 11015KT 10SM BKN031 OVC075 07/05 A3008 RMK AO2 RAE37 SLP184 P0001 T00670050 $
KPDX 161053Z 12013KT 10SM SCT033 OVC041 07/05 A3010 RMK AO2 SLP191 T00670050 $
KPDX 161153Z 12012KT 10SM BKN039 OVC070 07/05 A3011 RMK AO2 SLP196 60006 70010 T00720050 10083 20067 53015 $
KPDX 161303Z 11013KT 10SM -RA BKN022 BKN032 OVC085 07/06 A3014 RMK AO2 RAB02 P0000 T00720056 $
KPDX 161353Z 10009KT 10SM BKN016 BKN023 OVC032 07/06 A3016 RMK AO2 RAB02E34 SLP213 P0000 T00720056 $
KPDX 161453Z 11006KT 10SM FEW015 SCT060 BKN110 07/05 A3018 RMK AO2 SLP220 60002 T00670050 53024
KPDX 161553Z 13008KT 10SM FEW015 BKN060 BKN110 06/05 A3020 RMK AO2 SLP225 T00610050
KPDX 161653Z 12008KT 10SM FEW018 BKN055 08/06 A3021 RMK AO2 SLP229 T00780061
KPDX 161753Z 14007KT 10SM FEW037 09/07 A3025 RMK AO2 SLP244 60002 T00890067 10089 20061 53024
KPDX 161853Z 11012KT 10SM FEW015 FEW035 SCT050 BKN250 09/07 A3027 RMK AO2 SLP248 T00940067